STARLINK-32170

Last updated on Fri Sep 20 2024 00:02:03 GMT+0000 (Coordinated Universal Time)

1 60591U 24150J 24263.37665060 .00002421 00000+0 70463-4 0 9995 2 60591 53.1604 280.6875 0001213 91.0840 269.0304 15.39625874 5815
UTC large
Height (km)
Speed (km/s)
/
Latitude / Longitude
Inclination (degrees)
Orbital Period (minutes)
Azimuth
Elevation
Range (km)
Doppler Factor

Next 0 passes for location: London (51.5072 / 0.1276)

Sorry there are no passes over London.